STARLINK-11455, 62463

Orbit data source: Space-Track

STARLINK-11455, 62463 is a payload satellite owned by SpaceX/Seattle (US) in LEO that was launched on Tue, 31 Dec 2024 UTC via an FALCON 9 launch vehicle from the Air Force Eastern Test Range (AFETR). Payloads include a variety of satellites, spacecraft, and rockets equipped with specific instruments for various scientific and technological missions. These include communications satellites like Starlink; space stations such as the ISS; scientific satellites like the Hubble; Earth observation satellites from companies like Planet Labs, Umbra, and HawkEye 360; GPS; miniature CubeSats for education and research; and military/defense satellites.

Loading next visibility...
STARLINK-11455 details
Identifier
62463, 2024-254B
Orbit
LEO
Last TLE update17 hours ago
Origin
Flag of USSpaceX/Seattle (US)
ManufacturerSpaceX/Seattle
MissionOperational spacecraft
Bus & MotorSTARLINK V2M, Unknown motor
Mass730 kg wet, ~700 kg dry
Launch date (UTC)
2024-12-31 (4 weeks ago)
Launch vehicle
FALCON 9
Launch site
Air Force Eastern Test Range (AFETR)
Object type
Payload
Rocket body
Debris
Shape & HBRUnknown
Radar Cross SectionLarge (>1 m²)

Expand to show TLE details & history

TLE from 17 hours ago
0 STARLINK-11455
1 62463U 24254B   25025.08864761  .00000343  00000-0  48346-5 0  9992
2 62463  43.0011 168.1580 0001856 275.6841  84.3818 15.77869304  5113
Epoch: 2025-01-25T02:07Z
Definitive object data (Epoch: 2025-01-25T02:07:39.153Z)
Latitude0.00001°
Longitude11.60239°
Altitude336.127 km
Speed7.709 km/s
True Right ascension11h 12m 37s
True Declination0° 00' 00"
Sunlit
Object was in full shadow at TLE epoch
Visualization TLE readout
Latitude34.87544°
Longitude55.30136°
Altitude338.779 km
Speed7.71 km/s
Apparent Right ascension11h 29m 01s
Apparent Declination-1° 52' 25"
Sunlit
Object is in daylight
Visualization observer readout
Local Sidereal Time20:25:31
Azimuth300.43° NW
Elevation-33.689°
Doppler factor1
Orbital elements
Apogee altitude339.713 km
Perigee altitude337.219 km
Semi-major axis6,716.603 km
Eccentricity0.0001856
Inclination43.0011°
RAAN168.158°
Arg. of periapsis275.6841°
True anomaly84.40297°
Mean anomaly84.3818°
Eccentric anomaly84.39238°
Mean motion3.94293 °/min
BSTAR0.0000048346
Orbital period91.3 mins
Loading maneuver chart data...
Loading historical data...
Loading historical data...
Loading historical data...
Loading historical data...
Loading historical data...
Loading historical data...
Loading historical data...

STARLINK-11455 Visibility forecast

Observer location: undefined°, undefined

Span
Click to sort rows by Start time (UTC) header in descending order
Start Az.
Max El. time (UTC)
Max El. Az.
Max El.
End time (UTC)
End Az.
4 mins2025-01-26 16:31:38.203Z295.506° NW2025-01-26 16:33:38.203Z67.877° E39.62°2025-01-26 16:35:38.203Z98.052° ESE
|